This is the latest recevied weather packets stored in our database for station/object R8AHC-W2. If no packets are shown the sender has not sent any weather packets the latest 10 day(s).
| Time | Temp. | Humidity | Pressure | Rain* | Wind** | Luminosity | Snow |
|---|---|---|---|---|---|---|---|
| 1778014622 | 8.89° C | 73% | 1014 hPa | - | 1.34 m/s, 236° | - | - |
| 1778011022 | 10° C | 73% | 1014 hPa | - | 1.34 m/s, 236° | - | - |
| 1778003823 | 10° C | 60% | 1015 hPa | - | 2.68 m/s, 259° | - | - |
| 1778000222 | 11.11° C | 60% | 1015 hPa | - | 2.68 m/s, 259° | - | - |
| 1777996622 | 12.22° C | 60% | 1014 hPa | - | 2.68 m/s, 259° | - | - |
| 1777993021 | 13.33° C | 60% | 1014 hPa | - | 2.68 m/s, 259° | - | - |
| 1777989422 | 14.44° C | 60% | 1013 hPa | - | 2.68 m/s, 259° | - | - |
| 1777985822 | 15.56° C | 60% | 1013 hPa | - | 2.68 m/s, 259° | - | - |
| 1777982222 | 12.22° C | 48% | 1013 hPa | - | 3.58 m/s, 311° | - | - |
| 1777978622 | 13.33° C | 48% | 1012 hPa | - | 3.58 m/s, 311° | - | - |
| 1777975034 | 14.44° C | 48% | 1012 hPa | - | 3.58 m/s, 311° | - | - |
| 1777971422 | 15.56° C | 48% | 1012 hPa | - | 3.58 m/s, 311° | - | - |
| 1777967821 | 16.67° C | 48% | 1012 hPa | - | 3.58 m/s, 311° | - | - |
| 1777964222 | 10.56° C | 64% | 1012 hPa | - | 3.58 m/s, 303° | - | - |
| 1777960622 | 11.67° C | 64% | 1012 hPa | - | 3.58 m/s, 303° | - | - |
| 1777957022 | 12.78° C | 64% | 1012 hPa | - | 3.58 m/s, 303° | - | - |
| 1777953422 | 5.56° C | 91% | 1012 hPa | - | 1.34 m/s, 289° | - | - |
| 1777949823 | 6.67° C | 91% | 1012 hPa | - | 1.34 m/s, 289° | - | - |
| 1777946221 | 7.78° C | 91% | 1012 hPa | - | 1.34 m/s, 289° | - | - |
| 1777942622 | 3.89° C | 95% | 1012 hPa | - | 1.79 m/s, 289° | - | - |
| 1777939022 | 5° C | 95% | 1012 hPa | - | 1.79 m/s, 289° | - | - |
| 1777935422 | 6.11° C | 95% | 1011 hPa | - | 1.79 m/s, 289° | - | - |
| 1777931823 | 3.89° C | 91% | 1011 hPa | - | 0.89 m/s, 267° | - | - |
| 1777928222 | 5° C | 91% | 1011 hPa | - | 0.89 m/s, 267° | - | - |
| 1777924622 | 6.11° C | 91% | 1011 hPa | - | 0.89 m/s, 267° | - | - |
* Rain since midnight (hover to see other rain measurements)
** Current wind speed in m/s (hover to see current wind gust speed)